Regional Weather Roundup
Issued by NWS

Home | Current Version | Previous Version | Text Only | Print | Product List | Glossary On
Versions: 1 2 3 4 5 6 7 8 9 10 11 12 13 14 15 16 17 18 19 20 21 22 23 24 25 26 27 28 29 30 31 32 33 34 35 36 37 38 39 40 41 42 43 44 45 46 47 48 49 50
046
ASUS43 KOAX 111010
RWRNE

WEATHER ROUNDUP FOR NEBRASKA
NATIONAL WEATHER SERVICE OMAHA NE
400 AM CST THU FEB 11 2016

NOTES: SATELLITE DATA IS BEING USED TO AUGMENT CLOUD COVER ABOVE
       12000 FEET.
       "FAIR" INDICATES FEW OR NO CLOUDS BELOW 12,000 FEET WITH NO
       SIGNIFICANT WEATHER AND/OR OBSTRUCTIONS TO VISIBILITY.

  * THESE STATIONS DO NOT REPORT WEATHER SUCH AS RAIN...SNOW OR FOG.

NEZ001>004-019>022-054>056-111100-
NEBRASKA PANHANDLE

CITY           SKY/WX    TMP DP  RH WIND       PRES   REMARKS
SCOTTSBLUFF    CLEAR     31  23  72 NW7       30.09F WCI  24
ALLIANCE       CLEAR     22  19  89 S3        30.07F
CHADRON        CLEAR     24  21  88 CALM      30.06F
KIMBALL        CLOUDY    32  24  71 W9        30.12F WCI  24
SIDNEY         CLOUDY    31  24  75 NW9       30.11F WCI  23
$$

NEZ057>060-069>072-079>082-111100-
SOUTHWEST NEBRASKA

CITY           SKY/WX    TMP DP  RH WIND       PRES   REMARKS
NORTH PLATTE   CLOUDY    23  20  88 CALM      30.15F
IMPERIAL       CLOUDY    26  22  84 CALM      30.14F
LEXINGTON      CLOUDY    29  26  87 CALM      30.18S
MCCOOK         CLOUDY    25  22  88 CALM      30.16S
OGALLALA       CLOUDY    25  22  90 CALM      30.13F
$$

NEZ005>010-023>029-035>040-094-111100-
NORTH CENTRAL NEBRASKA

CITY           SKY/WX    TMP DP  RH WIND       PRES   REMARKS
VALENTINE      CLOUDY    27  26  96 W3        30.13F
AINSWORTH      CLOUDY    28  24  86 CALM      30.14F
BROKEN BOW     CLOUDY    31  28  89 N8        30.16R WCI  23
O`NEILL        CLOUDY    25  24  94 CALM      30.18S FOG
ORD            CLOUDY    29  25  85 NE3       30.18R
THEDFORD       CLOUDY    31  30  97 N3        30.14F FOG
$$

NEZ041-046>049-061>064-073>077-083>087-111100-
SOUTH CENTRAL NEBRASKA

CITY           SKY/WX    TMP DP  RH WIND       PRES   REMARKS
GRAND ISLAND   CLOUDY    26  23  88 N7        30.21R WCI  18
AURORA         CLOUDY    25  23  92 N6        30.20S WCI  18
HASTINGS       CLOUDY    28  23  81 N12       30.18F WCI  18
HEBRON         CLOUDY    24  21  90 N5        30.21F WCI  18
HOLDREGE       CLOUDY    29  26  90 NE10      30.17S WCI  19
KEARNEY *      CLOUDY    28  25  86 N9        30.19R WCI  20
YORK           CLOUDY    23  19  86 NE7       30.21S WCI  15
$$

NEZ011>018-030>034-042>045-111100-
NORTHEAST NEBRASKA

CITY           SKY/WX    TMP DP  RH WIND       PRES   REMARKS
NORFOLK        CLOUDY    19  15  84 NE6       30.22R WCI  11
ALBION         CLOUDY    23  20  87 CALM      30.21R
BLAIR          CLOUDY    15  11  83 NE9       30.23R WCI   4
COLUMBUS *     CLOUDY    19  10  68 NE6       30.23S WCI  11
FREMONT        CLOUDY    18  13  80 N5        30.25R WCI  11
TEKAMAH        CLOUDY    16   9  74 NE10      30.27R WCI   4
WAYNE          CLOUDY    17  13  84 NE3       30.24S
$$

NEZ050>053-065>068-078-088>093-111100-
SOUTHEAST NEBRASKA

CITY           SKY/WX    TMP DP  RH WIND       PRES   REMARKS
LINCOLN        CLOUDY    18  14  84 N8        30.25S WCI   8
OMAHA EPPLEY   PTCLDY    16  10  77 NE6       30.25F WCI   7
BEATRICE       CLOUDY    23  21  92 N8        30.20F WCI  14
FALLS CITY     CLOUDY    21  18  88 N6        30.21R WCI  13
NEBRASKA CITY  CLOUDY    21  19  91 NE10      30.21F WCI  10
PLATTSMOUTH    CLOUDY    17  14  86 NE8       30.22F WCI   7
$$

NEZ044-045-051>053-067-111100-
OMAHA AREA

CITY           SKY/WX    TMP DP  RH WIND       PRES   REMARKS
OMAHA EPPLEY   PTCLDY    16  10  77 NE6       30.25F WCI   7
BLAIR          CLOUDY    15  11  83 NE9       30.23R WCI   4
FREMONT        CLOUDY    18  13  80 N5        30.25R WCI  11
MILLARD        CLOUDY    18  12  78 CALM      30.24S
OFFUTT AFB     MOCLDY    16  11  81 NE10      30.23F WCI   4
PLATTSMOUTH    CLOUDY    17  14  86 NE8       30.22F WCI   7
WAHOO          CLOUDY    18  15  88 N5        30.24R WCI  11
$$




USA.gov is the U.S. government's official web portal to all federal, state and local government web resources and services.